Regional Weather Roundup
Issued by NWS Upton, NY

Current Version | Previous Version | Graphics & Text | Print | Product List | Glossary Off
Versions: 1 2 3 4 5 6 7 8 9 10 11 12 13 14 15 16 17 18 19 20 21 22 23 24 25 26 27 28 29 30 31 32 33 34 35 36 37 38 39 40 41 42 43 44 45 46 47 48 49 50
000 ASUS41 KOKX 260318 RWROKX REGIONAL WEATHER ROUNDUP NATIONAL WEATHER SERVICE NEW YORK NY 1100 PM EDT MON MAY 25 2015 NOTE: "FAIR" INDICATES FEW OR NO CLOUDS BELOW 12,000 FEET WITH NO SIGNIFICANT WEATHER AND/OR OBSTRUCTIONS TO VISIBILITY. NYZ071-072-176-178-NJZ106-104-260400- NEW YORK CITY METRO AREA CITY SKY/WX TMP DP RH WIND PRES REMARKS CENTRAL PARK PTCLDY 74 56 53 VRB3 30.22R LAGUARDIA APRT PTCLDY 71 56 58 S14 30.19R KENNEDY INTL PTCLDY 65 56 72 S18 30.22R NEWARK/LIBERTY PTCLDY 75 57 53 S14 30.19S BRNX BOT. GARD N/A 70 55 60 SE6 30.20F TETERBORO PTCLDY 75 55 49 S9 30.17S $$ NYZ177-179-078>081-260400- LONG ISLAND NEW YORK CITY SKY/WX TMP DP RH WIND PRES REMARKS FARMINGDALE PTCLDY 64 56 75 SW15G23 30.22S ISLIP MOCLDY 65 55 70 SW22G30 30.21R SHIRLEY PTCLDY 65 55 70 SW14G26 30.23S WESTHAMPTON PTCLDY 61 55 81 SW13G23 30.24S MONTAUK POINT N/A 62 54 74 SW12G31 30.23S $$ NYZ052-065-067-260400- HUDSON VALLEY CITY SKY/WX TMP DP RH WIND PRES REMARKS WHITE PLAINS PTCLDY 68 57 68 S5 30.19R NEWBURGH CLEAR 73 59 60 W8 30.17R MONTGOMERY FAIR 72 58 61 SW8 30.15R POUGHKEEPSIE PTCLDY 78 56 46 S9 30.14R ALBANY CLOUDY 77 56 48 S10 30.06S $$ NJZ001-105-106-008-010-013-015-019>022-104-260400- NEW JERSEY CITY SKY/WX TMP DP RH WIND PRES REMARKS NEWARK/LIBERTY PTCLDY 75 57 53 S14 30.19S TETERBORO PTCLDY 75 55 49 S9 30.17S CALDWELL CLEAR 75 56 51 SW7 30.19R MORRISTOWN CLEAR 73 55 53 SW5 30.19S SOMERVILLE CLEAR 72 58 61 S3 30.18R SUSSEX PTCLDY 73 57 57 SW6 30.19S ANDOVER N/A 72 58 61 VRB5 30.19S TRENTON CLEAR 72 58 61 S12 30.21S MILLVILLE CLEAR 68 56 65 VRB7 30.25S ATLANTIC CITY CLEAR 67 55 65 S14G24 30.26S WRIGHTSTOWN CLEAR 68 56 65 S10 30.21R TOMS RIVER CLEAR N/A N/A N/A S12 30.24S BELMAR PTCLDY 70 50 49 SW12G17 30.24R $$ PAZ047>061-062-071-260400- EASTERN PENNSYLVANIA CITY SKY/WX TMP DP RH WIND PRES REMARKS PHILADELPHIA PTCLDY 73 57 57 S9 30.23R ALLENTOWN CLEAR 74 59 59 SW13 30.19S SCRANTON CLEAR 74 58 57 SW10 30.16R $$ CTZ002-004>006-009-010-012-RIZ004-006-007-MAZ004-011-015-260400- SOUTHERN NEW ENGLAND IN CT CITY SKY/WX TMP DP RH WIND PRES REMARKS BRADLEY INTL CLOUDY 71 56 58 S12 30.15R HARTFORD CLOUDY 70 56 61 S12 30.16S DANBURY MOCLDY 69 55 60 S8 30.19R WTRBRY/OXFORD CLOUDY 66 55 68 SW9G16 30.20S BRIDGEPORT MOCLDY 63 55 75 W5 30.19R MERIDEN CLOUDY 69 55 60 S6 30.18R NEW HAVEN MOCLDY 63 55 75 VRB3 30.20R CHESTER FAIR 66 55 68 SW12 30.21S GROTON PTCLDY 64 53 67 SW16G29 30.20F WILLIMANTIC MOCLDY 69 55 60 S8 30.19S IN RI CITY SKY/WX TMP DP RH WIND PRES REMARKS PROVIDENCE CLOUDY 64 55 72 SW14 30.20F BLOCK ISLAND MOCLDY 59 52 77 SW18G24 30.23S WESTERLY MOCLDY 63 54 72 SW8 30.22F IN MA CITY SKY/WX TMP DP RH WIND PRES REMARKS BOSTON CLOUDY 67 57 70 S14 30.16S WORCESTER CLOUDY 67 55 65 SW13 30.17F WESTFIELD CLOUDY 70 57 63 S7 30.14S PROVINCETOWN MOCLDY 61 54 77 S17G23 30.21S NANTUCKET PTCLDY 59 56 89 S14 30.26F $$ ANZ330-335-338-340-345-350-353-355-260400- COASTAL MARINE OBSERVATIONS STATION/POSITION TIME SKY/WX TEMP WIND PRES VSBY WAVE AIR SEA DIR/SP/G HT/PER (UTC) (F) (DEG/KT/KT) (MB) (MI) (FT/S) NY HARB ENTRANCE 0250 61 56 200/ 19/ 21 1022.9 4/ 6 4S FIRE IS 0203 55 N/A 6/ 6 20S FIRE ISLAND 0250 60 55 210/ 17/ 19 1023.7 4/ 5 GREAT SOUTH BAY 0200 63 65 210/ 19/ 25 N/A 23SW MTP 0250 58 53 220/ 19/ 23 1023.5 5/ 5 HUDSON CANYON NOT AVBL KINGS POINT 0200 68 59 190/ 12/ 14 1021.7 CENTRAL LI SOUND 0215 63 54 200/ 17/ 19 N/A EASTERN LI SOUND 0200 58 220/ 14/ 17 N/A ROBBINS REEF 0200 74 180/ 15/ 17 1021.3 $$ >>>>>>>>>>>>>>>>>>>>>>>>>>>> KEY <<<<<<<<<<<<<<<<<<<<<<<<<<< > < > SKY/WX - SKY CONDITION/PRESENT WEATHER < > TMP - TEMPERATURE IN FAHRENHEIT < > DP - DEWPOINT IN FAHRENHEIT < > RH - RELATIVE HUMIDITY IN PERCENT < > WIND - DIRECTION AND SPEED IN MPH < > PRES - MEAN SEA LEVEL PRESSURE IN INCHES OF HG < > WCI - WIND CHILL INDEX < > VSB - VISIBILITY IN MILES < > HX - HEAT INDEX < > TC - TEMPERATURE IN CELSIUS < > VRB - VARIABLE WIND DIRECTION < > < >>>>>>>>>>>>>>>>>>>>>>>>>>>> KEY <<<<<<<<<<<<<<<<<<<<<<<<<<<

USA.gov is the U.S. government's official web portal to all federal, state and local government web resources and services.